Theta_e
290 289 290 290 291 291 291 291 291 291 292 291 291 291 292 292 292 292 293 293 293 293 293 293 293 293 293 293 293 293 292 292 292 291 291 291 291 291 291 290 290 289 289 289 288 288 288 288 289 289 290 290 290 290 290 290 290 289 289 289 288 288 289 290 291 291 287 286 286 284 284 284 284 284 283 283 283 283 282 281 281 281 281 282 281
289 289 289 290 290 290 290 290 290 290 291 291 291 291 291 291 291 292 292 292 292 292 292 293 293 293 293 293 293 292 292 292 292 291 291 291 290 290 290 290 290 289 289 288 288 288 288 288 288 288 289 289 290 290 290 289 289 288 288 288 288 288 288 289 290 290 287 285 285 284 283 283 283 283 282 282 282 282 282 281 281 281 281 281 281
288 289 289 289 289 288 288 289 289 289 289 290 291 291 291 291 291 291 291 291 291 292 292 292 292 292 292 292 292 292 292 292 291 291 291 291 290 290 290 290 290 289 289 288 288 288 287 287 288 288 288 288 289 289 289 289 289 288 288 288 288 287 287 287 288 289 288 285 284 283 283 282 282 282 282 282 282 281 281 281 281 282 282 281 280
288 288 288 288 288 287 287 287 288 288 288 289 289 290 290 291 291 290 290 291 291 291 291 292 292 291 292 292 292 292 292 291 291 291 291 291 290 290 290 290 289 289 289 288 288 288 287 287 287 287 288 288 288 288 288 288 288 288 287 287 287 287 287 287 287 288 287 285 284 283 282 282 281 281 281 281 280 280 280 281 281 282 281 280 279
288 288 287 288 288 287 286 286 286 287 287 288 288 288 289 289 290 290 290 290 290 290 290 291 291 291 291 291 291 291 291 291 291 291 291 291 290 290 290 289 289 289 289 288 288 288 288 288 288 287 287 287 287 287 287 288 288 287 287 287 287 287 286 286 286 287 287 286 284 282 282 281 281 280 280 280 280 279 280 280 281 281 280 279 279
287 287 287 288 288 288 286 285 285 285 286 286 287 288 288 288 289 289 290 290 290 289 290 290 290 290 291 291 291 291 291 291 291 291 291 291 290 290 289 289 289 289 288 288 288 288 288 288 288 287 287 287 287 287 287 287 287 287 287 287 286 286 286 285 285 285 286 285 283 281 281 280 280 279 279 279 280 280 280 280 280 280 280 279 280
287 287 287 287 288 288 287 286 285 284 285 285 286 287 287 287 287 288 289 289 290 289 289 289 290 290 290 290 290 290 290 290 291 291 290 290 289 289 289 288 288 288 288 288 287 288 288 288 287 287 287 287 287 287 287 287 286 286 286 286 286 286 285 285 284 284 284 284 283 282 281 280 280 280 279 279 279 280 281 281 281 281 280 280 280
286 286 286 287 287 287 287 286 285 284 284 284 285 285 285 286 286 286 287 288 289 289 289 289 289 289 289 290 290 290 290 290 290 290 290 289 289 288 288 288 288 288 287 287 287 287 287 287 287 287 287 287 287 287 287 287 286 286 286 286 286 285 285 284 283 283 283 283 283 282 281 280 280 280 280 279 279 280 280 281 282 282 281 281 281
285 286 286 286 286 287 286 286 285 284 283 283 284 284 284 285 285 285 285 286 288 288 289 289 289 289 289 289 289 289 289 289 289 289 289 289 289 288 288 288 288 287 287 287 286 287 286 286 286 287 287 287 287 287 287 287 287 286 286 285 285 285 284 284 283 283 283 282 282 281 281 281 281 280 280 280 281 281 281 280 281 282 281 281 281
285 285 285 285 286 286 286 285 284 283 283 283 284 284 284 284 284 284 284 285 286 287 288 289 289 289 289 289 288 288 289 289 289 289 289 289 288 288 288 288 287 287 287 286 286 286 286 286 286 286 286 286 286 286 286 286 287 287 287 287 286 285 284 283 283 283 282 282 282 281 281 281 281 281 281 281 281 282 281 280 281 281 281 282 282
284 284 284 284 285 285 285 284 283 282 281 282 283 284 284 284 283 284 284 284 284 285 286 288 288 288 288 288 288 288 288 288 288 288 289 289 288 288 288 287 287 287 286 286 286 286 286 285 285 285 285 285 285 285 285 285 285 286 287 287 287 287 286 284 283 282 282 282 281 281 281 282 281 281 281 281 281 281 280 280 281 281 281 282 283
283 283 283 283 284 284 283 282 281 281 280 281 282 283 284 283 283 283 283 283 284 284 285 286 287 288 288 288 288 288 288 288 288 288 288 288 288 288 288 287 287 287 287 286 286 286 285 285 285 285 285 285 284 284 284 284 284 284 285 285 286 286 287 286 285 284 282 282 281 281 282 282 281 281 281 281 281 280 280 280 281 281 281 282 283
282 282 282 282 283 283 282 281 280 280 279 279 282 284 284 283 282 282 282 282 283 284 284 283 285 286 287 288 288 288 288 288 288 288 288 288 288 288 288 288 287 287 287 286 286 286 285 285 284 284 284 284 284 283 283 283 283 283 284 284 284 284 284 285 285 285 284 283 282 281 281 281 281 281 281 281 281 280 280 280 280 281 281 281 282
281 281 281 281 282 282 281 280 280 279 278 278 281 284 284 283 282 282 282 282 282 283 283 283 283 285 286 287 287 287 287 287 287 287 287 287 287 288 288 288 287 287 287 287 286 286 285 285 285 284 284 284 283 283 283 283 283 283 283 283 283 283 283 283 283 283 283 283 283 282 281 281 281 281 281 281 280 280 280 280 280 280 280 280 280
281 281 281 281 281 281 280 279 279 279 278 277 280 283 283 282 282 281 282 282 283 283 283 283 283 284 284 286 287 287 287 288 287 287 287 287 287 287 288 288 287 287 287 287 286 286 285 285 285 284 284 283 283 283 283 283 282 282 282 282 282 282 282 282 282 282 282 282 282 282 281 281 281 281 281 280 280 280 280 280 280 279 279 279 278
280 280 280 280 281 280 279 279 278 278 277 277 278 281 281 281 280 280 280 281 283 283 283 282 283 283 283 284 285 286 287 287 287 286 286 287 287 287 288 288 287 287 287 287 286 286 285 285 284 284 283 283 283 283 282 282 282 282 282 282 281 281 281 281 281 281 281 281 281 281 280 280 280 280 280 280 279 279 279 279 279 278 278 277 276
280 280 280 280 280 279 278 278 277 276 276 275 276 278 280 279 279 278 279 280 281 282 282 281 281 282 283 283 284 285 286 287 287 286 286 286 287 288 288 288 288 287 287 287 286 286 285 285 284 284 283 283 282 282 282 282 282 282 281 281 280 280 280 280 280 280 280 280 280 279 279 279 279 279 279 279 278 278 278 278 277 277 276 276 276
279 279 279 279 279 278 277 277 276 275 275 274 275 277 278 278 277 277 277 278 279 281 281 281 281 282 283 283 284 284 285 286 286 286 286 286 287 287 288 288 288 288 287 287 286 286 285 285 284 283 283 283 282 282 282 282 282 282 281 280 280 279 279 279 279 279 279 279 278 278 278 279 279 279 278 279 278 278 278 277 277 276 276 276 276
279 279 279 278 278 277 276 276 275 274 273 273 274 276 276 276 275 275 275 276 277 278 280 281 282 282 282 283 283 283 284 284 285 286 285 285 286 287 287 288 288 288 288 287 286 286 285 284 284 283 283 282 282 282 282 282 282 282 281 280 279 279 279 279 279 279 279 278 278 278 279 279 279 278 278 279 279 278 278 277 276 275 275 275 275
278 278 278 277 277 276 275 274 274 273 273 273 274 275 275 274 273 273 274 274 275 276 278 280 281 281 281 282 282 283 283 283 284 285 285 285 285 286 287 287 288 288 288 287 286 285 284 284 283 283 282 282 282 282 283 283 282 281 281 280 279 279 279 279 279 279 279 279 278 279 279 279 278 278 279 279 279 277 277 276 275 275 274 274 274
277 277 276 276 275 275 274 273 273 272 272 272 273 273 272 272 272 272 272 273 274 275 276 278 279 280 281 281 282 282 282 283 283 284 284 284 285 286 286 287 287 287 287 287 286 285 284 283 282 282 282 282 282 282 283 283 282 281 281 280 280 279 279 279 279 279 279 279 279 279 279 278 278 278 278 278 277 276 275 275 274 274 273 273 273
275 275 275 274 273 273 273 272 272 271 271 271 271 271 271 270 270 270 271 271 272 273 275 276 279 280 281 282 282 282 282 282 282 283 284 284 284 285 286 286 287 287 287 287 286 284 283 282 281 281 282 281 282 282 283 284 283 282 281 280 280 279 279 279 279 279 279 279 279 278 278 277 277 277 277 277 277 276 276 275 274 273 272 272 272
274 273 273 272 272 272 271 271 271 270 270 270 270 269 269 269 269 269 270 271 272 273 275 277 279 280 281 282 282 282 282 282 282 282 283 283 284 284 285 285 286 287 287 286 285 284 283 282 281 281 281 281 282 282 283 284 283 282 280 280 280 279 279 278 279 279 279 279 278 277 277 276 276 275 276 276 276 276 276 274 273 272 271 271 271
272 271 271 271 270 270 270 270 269 269 269 269 269 268 268 268 268 269 269 270 272 273 275 277 279 280 281 282 282 282 282 282 282 282 282 283 283 284 284 285 286 286 287 286 285 284 282 282 282 281 281 282 282 282 283 283 284 283 281 280 280 280 279 278 278 278 278 278 277 276 276 275 275 275 276 276 275 275 274 273 271 270 270 270 270
269 269 269 269 269 268 268 268 268 268 267 267 267 267 267 268 268 268 269 270 272 273 275 277 278 280 281 282 282 282 283 282 282 282 282 282 283 283 284 284 285 286 287 286 285 284 282 282 282 281 281 281 282 282 283 283 284 283 281 280 280 280 278 277 277 277 277 277 276 276 275 275 275 275 275 275 274 273 272 271 270 269 269 269 269
267 267 267 267 267 267 266 266 266 266 266 266 266 266 267 267 267 268 269 270 271 273 274 276 278 279 280 281 281 282 282 282 282 282 282 282 282 282 283 284 284 285 286 286 286 284 282 282 281 280 281 281 282 282 282 283 284 283 281 280 280 279 278 277 277 277 276 276 276 275 274 274 274 274 274 274 273 272 271 269 269 268 268 268 268
264 264 265 265 265 265 265 265 265 265 265 265 265 266 266 266 267 268 269 270 271 272 273 275 276 278 279 281 281 282 282 282 282 281 281 281 281 281 282 283 283 284 285 286 286 283 282 281 281 280 280 281 282 282 282 282 283 283 281 280 280 279 278 277 277 276 276 276 275 275 274 273 273 273 273 272 271 270 269 269 268 268 268 267 267
263 263 263 263 263 263 263 263 264 264 264 264 264 265 265 266 266 267 267 268 269 270 271 273 275 276 278 280 281 281 282 282 282 281 281 281 280 281 281 282 283 283 284 285 285 283 281 280 280 280 280 281 281 282 281 282 283 282 281 280 280 278 277 277 276 276 276 275 274 273 272 272 272 272 271 271 269 269 268 268 267 267 267 267 267
262 262 262 262 262 262 263 263 263 263 263 263 263 264 264 264 265 265 266 266 268 269 270 271 273 275 277 279 280 281 281 282 282 282 281 281 281 280 280 281 282 283 284 285 284 282 280 280 280 280 280 280 281 281 281 282 282 281 280 280 279 277 276 276 275 275 275 274 273 272 272 271 271 270 270 269 268 268 268 267 267 267 267 267 267
261 261 262 262 262 262 262 262 262 263 263 263 263 263 263 264 264 265 266 266 267 268 270 271 272 274 275 277 278 280 280 281 281 281 281 281 281 281 281 281 281 282 283 284 283 281 280 280 280 280 280 280 281 281 281 281 281 280 279 279 277 276 275 275 275 274 273 272 272 272 271 270 269 269 268 268 267 267 267 267 267 267 267 267 267
261 261 261 261 262 262 262 262 262 262 262 263 263 263 263 263 264 265 266 267 268 269 270 272 273 274 275 276 277 278 279 280 281 281 282 282 282 282 281 281 282 282 283 283 282 280 279 280 279 279 280 280 280 281 281 280 279 278 277 277 276 275 275 274 274 273 272 272 272 272 271 270 269 268 268 267 267 267 266 266 267 266 266 267 267
261 261 261 261 261 261 262 262 262 262 262 262 262 263 263 263 264 264 265 267 268 270 271 272 273 274 275 275 276 278 279 280 280 281 282 282 282 282 282 282 282 282 283 283 281 279 279 279 279 279 280 280 280 280 280 278 276 275 275 275 274 274 274 274 273 273 272 272 272 271 271 270 269 268 268 267 267 266 266 266 266 266 266 267 267
261 261 261 261 261 261 261 262 262 262 262 262 263 263 263 263 264 264 265 266 266 267 268 269 270 271 272 273 274 276 278 279 280 281 282 282 282 282 282 283 283 283 283 283 281 280 279 279 279 279 279 280 280 279 278 277 275 274 274 274 273 274 273 273 272 272 271 272 272 271 270 269 268 267 267 267 267 266 266 266 266 266 266 266 267
260 260 260 261 261 261 261 261 262 262 262 262 262 263 263 263 263 264 264 264 264 265 266 267 268 269 271 272 273 274 276 278 280 282 282 283 283 283 282 283 283 283 283 283 282 280 279 279 279 279 279 279 279 278 277 276 275 274 273 274 273 273 272 271 271 270 270 271 271 270 268 268 267 267 267 266 266 266 266 266 266 266 266 266 267
260 260 260 261 261 261 261 261 261 262 262 262 262 262 262 263 263 263 263 264 264 265 265 266 267 269 271 272 274 275 276 277 279 281 282 283 283 283 283 283 283 283 283 283 282 280 279 279 279 279 279 278 278 277 276 276 274 274 274 273 271 270 269 269 269 269 269 269 268 268 267 267 267 267 267 266 266 266 266 266 266 266 266 266 267
260 260 260 261 261 261 261 261 261 261 261 262 262 262 262 262 263 263 263 264 264 265 266 266 268 269 270 272 274 276 278 278 279 280 282 283 283 283 283 283 283 283 283 283 282 280 279 279 279 278 278 278 277 276 276 275 274 274 273 271 270 269 269 268 268 269 269 268 268 267 267 267 267 267 267 267 266 266 266 266 266 266 266 266 266
260 260 260 261 261 261 261 261 261 261 261 262 262 262 262 263 263 263 264 264 265 266 267 267 268 268 269 272 275 277 278 279 279 280 282 283 283 283 282 282 282 282 282 283 282 281 280 279 279 278 277 277 276 276 275 275 274 274 272 270 269 269 269 269 269 270 269 268 268 267 267 267 267 267 267 267 266 266 266 267 266 265 266 266 266
260 260 261 261 261 261 261 261 261 262 262 262 262 263 263 263 264 264 264 265 265 266 267 267 267 268 269 271 274 277 278 279 279 280 281 282 283 282 282 282 282 282 282 283 282 281 280 279 278 277 277 277 276 275 275 274 273 272 271 269 269 269 269 269 269 269 269 268 268 268 267 267 267 267 267 266 266 266 266 266 266 265 266 266 266
261 261 261 261 261 262 262 262 262 262 262 262 263 263 263 264 264 264 265 265 266 266 267 267 268 269 270 271 273 276 278 279 279 280 281 282 283 282 282 282 282 282 282 282 281 280 279 278 277 277 276 276 275 274 273 273 272 271 269 269 268 268 268 267 267 268 268 268 267 267 267 266 266 267 267 267 267 267 266 266 265 265 266 266 266
261 261 261 262 262 262 262 262 262 262 263 263 263 263 263 264 264 265 265 265 266 267 267 268 269 270 271 273 274 276 277 278 278 279 281 282 282 282 282 282 282 282 282 282 280 279 278 277 276 276 275 275 274 273 272 271 270 269 268 268 268 268 268 268 268 268 267 267 266 266 266 266 267 267 267 267 267 267 267 266 266 265 265 266 266
261 261 261 262 262 262 262 262 263 263 263 263 263 263 263 264 264 264 265 265 266 266 267 268 268 269 271 274 276 276 277 278 278 279 280 281 281 281 281 281 281 281 281 280 279 278 277 276 275 275 274 274 273 272 271 270 269 268 268 268 268 268 267 267 268 268 267 267 267 266 267 267 267 267 266 266 267 267 266 266 265 265 266 266 266
261 261 262 262 262 263 263 263 263 263 263 263 263 263 264 264 264 265 265 266 266 267 268 269 270 271 272 274 276 276 277 278 278 279 280 280 281 280 280 280 280 280 279 278 277 276 274 274 274 274 273 272 271 270 269 269 268 267 268 268 268 267 267 267 268 268 268 267 267 267 267 267 267 267 266 266 266 266 266 265 265 265 266 266 266
261 262 262 263 263 263 263 263 263 263 263 264 264 264 264 264 265 265 266 266 267 268 269 270 271 272 273 274 275 276 277 278 278 279 279 279 278 278 278 278 277 277 276 276 275 274 273 273 273 272 271 271 270 270 270 269 268 268 268 268 267 267 267 268 268 268 268 267 267 267 267 266 266 266 266 266 266 266 265 265 265 265 265 265 266
262 262 262 263 263 263 264 264 264 265 265 265 265 265 265 265 265 266 266 267 268 269 270 271 272 273 274 275 275 276 276 277 277 277 276 276 275 275 275 275 275 275 274 273 273 273 273 272 271 270 270 270 270 269 269 269 269 268 268 268 268 268 269 269 268 268 268 267 267 267 266 266 266 265 265 266 266 266 265 265 265 265 265 265 266
262 262 262 263 263 264 264 265 265 266 266 266 266 266 266 266 266 267 267 268 269 270 271 272 273 274 274 274 274 274 274 274 274 273 273 273 272 272 273 273 273 273 273 272 272 272 272 271 270 270 269 269 268 268 267 267 268 268 270 270 270 270 269 269 269 268 268 268 267 267 266 266 265 265 265 266 266 266 266 265 265 265 265 265 266
261 262 262 263 263 264 264 265 265 266 266 267 267 268 268 268 268 269 269 270 270 271 272 272 272 272 272 271 271 271 271 271 270 270 270 270 270 270 271 271 271 271 271 271 271 271 270 270 270 270 269 269 269 268 268 268 268 269 270 271 271 270 270 269 269 268 268 268 267 267 266 266 266 266 266 266 266 266 266 265 265 265 265 265 265
261 261 262 263 263 263 264 264 264 265 266 266 267 267 268 268 268 268 269 269 269 269 269 269 269 269 269 268 268 268 268 268 267 267 267 267 268 268 268 269 269 269 269 269 269 269 268 268 269 270 270 270 269 269 269 269 269 269 269 269 269 269 269 268 268 268 267 267 267 266 266 266 266 266 266 266 266 266 266 266 265 265 265 265 265
260 261 261 262 262 263 263 263 264 264 264 265 266 266 266 266 267 267 267 267 266 266 267 266 266 266 266 266 266 266 266 266 265 265 265 265 266 266 266 267 267 267 267 267 267 267 267 268 269 270 270 269 269 269 269 268 268 268 268 268 268 267 267 267 267 266 266 266 266 266 266 266 265 265 266 266 266 265 265 265 265 265 265 265 265
259 260 260 261 261 262 262 262 263 263 263 264 264 265 265 265 265 265 265 265 265 265 265 265 265 265 264 264 264 264 264 264 264 263 263 264 264 264 265 265 266 266 266 266 266 266 267 268 269 269 269 269 268 268 268 267 267 267 267 266 266 266 266 266 266 266 265 265 265 265 265 265 265 266 266 266 266 265 265 265 265 265 265 265 265
258 259 259 260 260 261 261 261 262 262 262 262 263 263 264 264 264 264 264 264 264 264 264 264 263 263 263 262 262 262 262 262 262 262 262 262 263 263 264 264 265 266 266 266 266 267 267 268 268 268 268 268 267 267 267 267 266 266 266 266 266 266 266 265 265 265 265 265 265 265 265 265 265 265 266 266 265 265 265 265 265 265 265 265 265
258 258 258 259 259 260 260 260 261 261 261 261 262 262 262 262 263 263 263 263 263 263 263 262 262 262 261 261 261 261 261 261 261 261 261 261 262 263 263 264 265 266 266 266 267 267 267 267 267 267 267 267 266 266 266 266 266 266 266 266 265 265 265 265 265 265 265 265 264 264 265 265 265 265 265 265 265 264 265 265 265 265 265 265 265
Wind_Speed
27 28 27 24 23 22 23 25 28 30 29 26 23 22 22 22 24 26 27 28 29 30 30 31 32 33 33 35 36 38 39 41 42 43 44 45 46 47 47 47 48 48 47 47 49 48 48 49 50 50 48 46 45 44 42 41 39 37 35 33 32 31 25 16 8 6 9 12 15 20 25 24 25 27 26 23 22 20 19 19 17 16 14 11 8
23 23 23 23 24 25 24 24 26 27 27 26 24 24 23 22 22 23 25 27 28 29 30 31 32 33 34 35 36 37 39 40 42 42 43 44 45 47 48 48 49 49 47 47 48 49 48 49 50 50 49 47 46 46 44 43 41 38 37 35 33 32 29 21 11 8 10 12 14 18 23 24 22 23 26 24 22 22 20 19 18 17 16 12 9
24 23 23 23 24 28 29 28 27 27 27 26 26 24 23 23 22 22 23 24 26 28 29 30 32 33 34 35 36 37 38 40 41 43 45 46 46 47 49 49 50 50 50 50 49 48 49 49 50 50 49 47 47 46 45 45 43 41 40 38 35 32 32 27 16 11 12 14 15 18 22 25 22 20 24 25 23 22 20 19 19 19 16 12 9
22 22 25 27 28 31 32 30 28 28 28 28 29 29 27 24 23 21 21 22 23 26 28 29 31 32 34 35 36 37 38 40 42 44 46 48 49 49 49 50 51 52 54 54 51 50 50 51 52 51 49 48 48 47 45 45 45 44 42 40 37 33 34 32 22 14 14 16 16 18 20 24 23 20 23 25 24 23 20 20 21 19 16 12 9
20 21 23 25 27 30 33 33 31 29 27 27 28 29 30 28 26 23 21 21 23 24 26 28 29 31 34 36 38 39 40 41 43 45 47 48 49 49 49 50 51 53 55 56 55 54 54 56 57 54 50 51 51 49 48 47 46 46 43 41 39 35 34 34 28 19 16 17 17 17 16 18 19 20 23 23 21 20 20 20 20 17 14 12 11
17 18 20 20 21 23 28 32 33 31 29 28 27 26 27 29 30 27 22 21 22 23 24 26 28 31 33 36 38 40 41 43 45 46 47 48 49 49 49 50 51 52 54 55 56 56 57 59 59 56 53 55 56 54 51 49 48 47 45 42 41 37 33 33 31 25 17 16 18 17 16 16 16 17 23 23 18 16 16 16 16 16 13 12 12
16 16 16 16 16 18 21 26 31 32 32 31 29 28 28 29 30 29 28 25 21 20 21 23 26 29 33 35 37 39 40 42 44 45 46 46 47 48 49 49 49 50 52 54 55 56 58 59 59 58 57 59 61 58 53 51 49 48 47 45 41 38 35 33 32 28 19 15 16 17 16 17 15 14 18 21 17 14 14 14 14 15 14 13 13
18 17 17 16 16 16 18 22 27 31 33 33 32 32 32 32 31 31 31 29 26 22 19 20 23 26 30 33 36 38 40 41 42 42 43 44 45 47 48 49 48 48 50 52 53 54 56 58 59 60 61 62 62 60 57 55 52 49 46 44 42 40 38 34 32 28 21 16 15 16 15 16 15 13 14 17 16 15 17 16 13 14 14 12 11
18 18 18 17 17 17 17 18 23 28 32 33 33 34 34 34 33 34 33 32 31 28 24 21 20 22 26 29 33 36 38 40 40 40 40 42 44 45 46 48 48 48 49 50 50 52 54 56 58 59 60 60 59 58 58 58 57 54 50 46 44 41 39 36 33 29 24 18 15 16 15 16 17 17 17 18 17 15 17 17 12 11 11 10 9
17 17 17 17 17 18 17 18 21 26 29 30 32 33 34 35 34 34 34 33 33 32 30 28 24 21 22 24 29 33 35 37 37 38 39 41 41 41 42 44 45 44 44 46 48 50 52 54 57 56 54 55 55 54 55 56 57 58 56 53 51 47 42 38 36 33 30 26 22 20 17 16 19 20 19 19 17 15 16 15 12 10 9 7 6
19 18 17 17 17 17 18 20 22 26 28 29 30 30 31 33 34 33 33 33 34 33 32 31 29 26 23 23 26 30 34 35 35 37 39 41 41 39 39 40 41 41 42 43 46 49 50 51 53 53 50 50 52 53 53 54 56 56 56 56 56 55 51 47 42 38 35 33 30 26 20 16 19 22 19 18 18 16 15 14 12 10 8 6 4
23 21 21 21 19 17 19 24 27 30 31 30 30 30 30 31 32 33 32 33 33 32 32 32 31 30 28 25 25 27 32 34 34 36 38 40 41 41 40 39 39 41 42 43 43 43 45 47 49 50 51 50 50 51 52 53 54 54 53 52 54 56 57 55 50 46 43 39 35 31 25 21 23 24 23 22 21 18 16 14 12 11 9 7 5
23 24 26 26 22 19 22 27 31 33 34 32 28 27 29 31 32 31 32 33 33 31 33 34 33 32 30 29 29 29 30 31 32 35 37 38 40 41 42 41 39 40 43 45 44 41 42 45 46 47 49 50 48 49 51 53 52 51 50 50 51 53 54 54 53 52 51 49 44 38 32 29 28 28 28 27 24 21 17 15 13 11 9 7 6
21 23 26 27 25 23 25 28 31 34 37 35 28 22 24 28 30 30 30 31 32 32 34 35 34 32 31 32 33 33 32 30 30 33 35 37 40 40 41 41 41 41 43 46 47 45 44 46 46 46 46 48 49 49 51 52 51 48 48 48 49 51 51 50 49 47 46 47 46 41 35 31 27 27 28 28 26 23 19 16 14 12 10 8 6
22 21 23 24 23 24 27 28 31 34 37 37 29 23 23 25 26 27 26 26 27 29 32 33 32 32 32 32 33 35 36 33 31 32 34 36 38 39 40 40 41 42 43 45 47 46 45 46 47 47 46 47 51 51 51 52 50 47 47 48 47 48 49 50 50 47 43 42 41 38 33 29 26 25 26 26 26 22 18 15 13 12 10 7 6
24 21 21 21 20 22 26 28 31 34 36 36 32 27 24 26 26 26 25 25 25 26 30 33 32 32 33 32 33 37 39 37 34 33 33 34 35 36 37 39 40 40 42 44 45 46 46 46 45 46 46 47 49 51 51 52 49 45 45 47 47 45 47 49 49 48 44 40 37 34 30 27 25 24 24 25 24 20 16 14 15 14 12 8 6
24 22 22 20 19 21 26 27 30 33 34 36 36 31 27 28 29 26 24 25 25 26 31 36 36 34 33 31 32 36 39 38 35 33 32 31 32 34 35 36 39 41 43 44 44 45 46 46 44 44 46 47 48 50 50 51 49 44 43 45 45 43 44 45 44 43 42 39 35 31 27 25 23 22 22 22 22 21 19 18 18 16 12 8 7
24 24 23 20 19 23 26 27 29 32 33 35 35 32 30 32 33 29 24 24 26 27 29 32 35 35 33 32 32 34 37 38 36 35 33 31 30 33 34 33 35 40 41 42 44 44 45 45 43 44 46 48 49 49 49 51 50 45 42 41 42 42 41 40 38 36 34 32 30 27 24 22 21 20 20 19 19 20 22 20 17 14 13 11 8
25 25 24 21 22 26 28 29 30 31 33 34 32 29 31 34 35 32 27 26 28 29 27 27 31 34 34 34 34 34 36 38 37 35 35 31 30 33 33 31 33 34 33 35 39 41 42 42 42 44 46 46 47 47 47 49 50 48 44 41 42 43 41 39 38 35 31 29 29 26 23 21 21 20 19 19 19 21 22 18 15 15 14 11 9
24 24 23 23 26 30 30 30 31 32 33 32 28 27 30 32 32 32 31 30 29 30 29 29 31 35 37 37 36 35 36 38 37 35 35 33 31 31 32 32 34 33 31 33 36 37 38 39 41 43 44 44 45 45 44 45 47 47 45 45 47 47 41 37 37 37 35 33 30 26 22 22 24 23 21 22 21 20 19 17 18 18 15 11 10
23 23 23 26 30 33 33 33 33 34 33 29 27 28 31 31 30 31 31 31 31 32 34 33 33 34 36 36 37 37 36 38 39 37 36 34 32 32 33 35 36 33 32 35 36 36 37 37 38 40 41 41 43 44 43 43 44 45 47 50 51 47 41 37 37 37 37 34 29 25 24 26 27 27 26 26 25 22 20 19 19 18 17 14 12
25 25 26 30 34 35 35 34 34 34 33 30 28 32 34 31 30 31 30 30 33 36 37 36 33 31 32 32 35 38 39 39 39 39 38 36 34 33 34 37 37 33 33 35 37 36 36 37 38 39 40 41 42 43 44 44 43 44 47 49 47 42 40 40 38 36 35 32 27 26 29 30 28 27 28 28 27 26 24 21 19 17 17 17 15
28 29 31 35 37 36 35 35 35 36 35 32 29 31 34 31 30 30 29 29 30 32 34 34 31 30 30 29 30 35 40 40 39 38 38 38 37 35 36 38 38 35 34 34 35 36 36 37 38 39 40 41 42 42 43 44 44 43 42 43 41 39 40 41 39 37 35 32 29 29 31 31 28 28 29 29 27 27 25 21 20 19 17 17 17
32 35 37 38 39 38 36 36 37 36 35 32 29 30 32 30 29 29 29 28 28 28 29 29 28 26 26 26 25 28 33 37 38 38 37 38 38 36 36 37 38 38 38 36 35 36 38 39 39 39 40 40 40 40 41 43 44 41 37 37 38 38 40 42 41 39 36 33 31 30 29 30 31 31 31 30 27 25 23 20 19 19 18 16 15
36 38 39 38 37 38 38 38 37 36 35 33 30 32 33 31 29 28 27 27 27 27 26 26 26 24 24 24 24 24 25 29 34 36 36 37 37 35 35 36 37 38 41 40 37 35 37 39 38 38 39 38 37 38 39 42 44 41 36 37 38 37 40 44 42 38 36 33 31 29 29 30 32 32 31 29 26 22 20 18 18 18 18 17 16
37 38 39 37 36 37 37 37 35 33 33 31 31 32 33 31 29 28 26 26 27 27 26 25 25 25 24 24 25 24 22 23 29 34 35 34 35 35 34 36 38 38 40 42 40 36 36 37 37 36 36 35 36 36 36 38 42 39 37 39 37 35 41 47 44 38 36 34 31 29 30 31 32 30 29 27 24 21 20 20 19 19 18 17 15
36 37 37 35 35 34 33 33 33 32 31 29 29 29 29 28 28 27 25 25 25 26 26 26 25 24 24 24 25 25 22 20 23 30 32 32 33 35 33 33 35 35 37 40 39 35 34 34 33 33 32 32 34 34 33 35 38 37 38 40 37 35 42 48 46 42 41 39 34 30 30 31 30 28 27 25 22 21 21 22 19 17 16 15 12
35 36 36 35 35 34 32 31 31 30 29 27 27 27 26 26 26 27 27 26 26 27 27 26 27 26 26 25 24 22 22 21 23 29 32 31 31 32 31 30 30 29 31 35 34 32 31 29 29 30 31 31 32 31 30 33 35 35 38 39 36 35 39 42 41 41 41 38 33 30 30 30 29 28 26 25 23 22 22 22 19 15 14 14 11
35 36 35 34 33 31 30 29 28 27 28 27 28 28 28 27 29 31 32 31 31 32 32 31 31 30 29 29 26 22 22 23 24 27 31 32 32 32 32 32 31 28 28 30 29 27 25 23 23 25 27 28 29 28 28 30 31 31 34 36 33 33 36 36 35 34 32 30 31 31 31 30 28 28 27 25 24 24 22 20 19 16 15 14 11
35 34 33 32 31 30 30 30 28 28 29 28 29 30 30 30 31 33 35 35 36 38 39 39 39 36 34 33 31 28 28 29 26 24 25 28 30 31 31 33 32 29 27 28 28 25 20 18 19 22 24 24 25 26 27 28 28 27 30 32 32 33 35 35 34 32 29 30 32 33 32 31 29 29 28 26 24 23 21 19 18 16 15 14 11
34 33 31 31 32 32 32 32 31 30 30 29 29 30 30 30 30 33 37 39 38 39 41 43 44 43 41 40 39 38 38 38 35 32 29 29 29 29 29 31 31 29 28 28 27 22 18 17 18 21 23 24 24 26 27 28 26 26 27 28 30 34 35 33 33 33 31 30 32 33 33 32 30 29 29 27 25 23 20 17 15 14 13 12 11
33 33 32 32 33 33 33 32 31 31 30 29 29 29 29 28 27 28 31 32 33 34 36 38 40 41 40 41 40 41 41 41 39 37 35 33 32 31 30 30 30 30 30 29 25 17 16 19 20 20 22 22 23 25 27 27 27 29 29 27 27 32 35 34 35 36 34 34 35 35 33 32 31 30 29 28 25 24 21 17 15 13 12 11 10
32 32 32 32 32 32 32 31 30 30 29 29 28 28 28 26 25 25 27 28 30 35 38 41 44 45 44 43 42 42 41 40 39 38 36 34 34 32 30 31 31 30 30 30 26 18 17 18 19 21 23 23 22 24 25 26 28 30 31 31 31 32 34 36 37 35 34 36 38 37 34 33 32 30 28 27 25 24 21 17 14 13 11 9 9
31 31 32 32 32 31 31 30 30 30 29 29 28 28 28 28 27 27 26 24 24 28 31 35 39 41 41 40 41 42 42 41 39 38 36 35 34 32 30 30 30 30 31 30 25 20 19 18 18 22 26 25 23 24 25 25 28 29 30 32 33 31 32 34 32 31 33 37 38 35 34 32 31 29 28 25 23 20 17 15 13 11 10 9 8
30 30 31 31 31 30 29 29 29 29 29 28 28 28 28 29 28 27 26 23 20 21 25 28 30 32 32 32 34 37 39 39 39 38 36 34 33 31 28 25 23 25 28 28 23 20 19 18 18 22 26 25 24 26 27 26 28 30 29 28 29 29 31 31 29 28 33 36 34 32 31 30 29 28 27 24 22 19 17 15 13 11 10 9 8
27 28 29 29 28 28 29 28 28 29 29 28 28 28 28 28 27 27 27 26 24 23 24 25 27 30 32 32 32 31 32 33 34 34 34 33 31 29 24 20 19 21 22 23 24 22 22 23 23 24 25 25 25 27 27 27 31 33 31 29 31 34 35 35 32 32 35 35 32 31 30 29 28 28 26 24 22 20 18 17 14 12 10 9 8
27 26 26 27 26 26 27 27 28 29 29 28 28 27 27 27 27 26 25 25 24 24 23 24 25 27 29 30 29 26 25 27 27 28 31 32 30 29 23 20 20 20 19 20 24 24 23 25 26 25 25 26 27 27 27 27 30 30 28 29 36 39 40 40 38 37 38 37 34 32 31 30 29 29 27 23 21 19 18 16 14 11 10 9 8
28 26 25 26 25 25 25 27 27 28 28 27 26 26 25 25 25 24 24 24 24 23 23 24 23 22 24 27 26 21 20 21 21 21 25 28 27 26 23 20 20 20 17 18 22 24 23 24 26 26 26 26 27 27 27 27 27 26 25 28 34 36 36 37 36 36 37 38 36 33 32 31 30 28 26 24 22 19 18 16 13 11 9 9 9
24 24 26 27 26 25 25 25 26 26 26 25 24 24 24 24 23 23 22 22 23 22 21 21 20 19 21 25 25 21 17 15 15 15 17 18 20 21 19 17 18 18 17 16 20 24 23 23 25 27 26 26 25 26 27 28 28 27 27 29 31 30 30 33 35 35 36 36 35 33 32 31 30 28 26 24 23 20 18 16 14 12 10 9 10
23 24 24 25 25 25 23 23 24 25 24 24 24 23 22 22 22 22 22 21 21 21 20 20 21 23 24 24 23 20 16 13 14 15 12 10 14 16 14 11 12 16 16 16 19 22 23 23 25 26 26 26 26 26 27 28 28 28 28 31 32 32 32 35 37 36 35 34 33 32 31 31 30 28 26 24 22 21 19 17 14 12 10 9 9
26 25 24 24 24 23 22 21 23 23 23 24 23 23 22 22 21 22 22 21 20 21 20 20 23 27 27 24 22 21 19 15 15 15 12 9 13 16 14 10 11 13 14 15 17 20 21 23 26 27 27 27 26 25 26 27 28 29 30 30 31 33 35 36 36 36 34 33 32 31 31 31 30 28 26 24 22 19 17 15 12 10 8 8 8
27 26 25 24 21 19 18 19 20 21 21 22 22 22 22 21 20 20 20 20 19 19 19 20 22 24 23 22 22 21 19 16 15 15 13 10 12 15 13 10 9 11 14 16 18 19 22 25 28 29 28 28 26 26 27 29 29 30 31 31 30 31 34 36 35 34 33 32 31 31 31 31 30 28 25 23 21 18 16 14 12 9 8 8 8
26 25 25 24 23 21 20 19 18 17 18 19 20 21 21 20 20 20 20 20 20 19 19 20 21 20 20 20 20 20 18 16 14 12 9 6 8 10 11 11 11 12 15 17 19 23 26 29 29 29 28 29 30 31 32 33 32 31 32 32 33 34 36 36 35 34 33 32 31 31 31 29 27 25 23 21 19 18 15 14 12 10 8 8 8
25 24 24 24 23 22 21 19 18 17 17 18 19 19 19 18 18 18 18 18 19 19 18 19 19 19 18 17 16 14 13 10 6 4 6 8 10 11 13 14 14 16 18 20 23 26 29 29 28 26 25 26 28 29 30 33 35 35 35 35 37 39 38 36 35 34 33 32 31 31 30 28 26 23 22 21 19 17 14 12 11 9 8 7 7
23 23 22 22 21 21 21 20 19 18 17 16 15 16 17 17 18 18 18 18 19 19 18 17 16 15 13 11 8 6 3 1 3 6 9 11 13 15 16 17 17 18 20 22 25 27 28 29 29 29 27 27 26 26 27 30 33 35 37 38 38 38 36 34 33 33 32 31 31 30 29 28 25 23 22 20 18 16 13 11 9 8 7 7 7
22 22 21 20 20 19 19 19 19 20 18 16 13 13 13 14 14 14 14 14 14 13 12 11 9 7 6 5 5 5 5 7 9 10 12 14 16 17 18 18 19 20 21 23 25 27 27 29 31 31 30 29 28 29 30 32 32 33 32 31 31 31 30 30 29 29 28 28 28 28 28 27 25 23 21 18 16 14 12 10 9 9 8 7 7
23 21 20 20 19 19 18 18 18 19 19 17 15 14 13 13 12 11 11 11 10 9 9 9 8 7 7 8 8 8 9 11 12 14 15 16 17 17 18 19 20 21 22 23 24 24 25 27 29 30 31 32 32 33 34 34 32 30 27 25 25 26 26 26 25 24 24 23 23 24 25 24 22 21 19 17 14 12 11 9 8 8 8 8 8
22 20 20 20 19 18 18 18 18 18 18 18 17 16 15 13 13 13 13 13 13 12 11 11 10 9 9 9 9 10 12 13 14 15 16 16 17 17 17 19 20 22 22 22 22 23 26 28 30 32 34 35 35 35 34 32 29 27 26 24 24 24 24 24 23 22 21 21 20 20 20 19 19 18 17 15 12 10 8 7 7 7 8 9 9
21 20 20 20 19 18 18 18 17 17 17 17 17 17 16 15 14 13 13 13 13 12 12 12 11 11 11 11 11 11 13 14 15 16 16 17 17 18 18 19 21 23 24 24 25 26 29 32 34 35 36 35 34 33 32 30 29 28 26 25 24 23 22 22 21 21 20 20 19 18 17 16 16 16 15 13 10 8 7 6 7 9 9 10 10
21 20 19 19 19 19 18 17 16 16 16 16 16 16 16 16 15 14 14 13 12 12 12 13 13 13 13 14 13 14 15 16 17 17 17 17 19 21 22 24 27 29 30 31 33 33 34 35 35 34 34 33 32 31 30 29 28 26 25 24 23 21 20 20 19 18 18 17 16 15 14 14 14 15 13 11 8 7 7 7 9 11 11 10 10
20 19 19 19 19 18 18 18 18 17 17 17 16 15 15 16 16 15 14 14 12 12 13 14 14 14 15 15 16 16 17 17 17 18 19 21 24 28 31 33 35 36 36 37 37 36 35 34 33 33 32 31 29 28 27 26 24 23 22 21 20 19 18 18 17 16 15 14 13 12 12 12 13 13 11 8 6 7 8 9 12 13 12 10 10
Wind_Direction
23 24 24 22 18 16 16 17 18 17 15 9 359 345 334 323 313 306 298 291 285 277 270 264 260 255 251 247 244 241 238 235 232 230 229 228 227 227 227 228 227 227 227 227 226 224 222 222 222 222 222 220 218 217 215 214 213 211 211 211 211 211 207 203 203 167 163 175 181 195 202 201 205 210 211 218 225 229 238 244 248 250 244 234 226
13 14 16 17 17 17 16 15 15 14 13 9 2 353 344 335 325 316 306 300 293 284 277 270 265 260 254 250 246 243 240 237 234 232 230 229 228 228 227 226 226 226 225 227 226 224 222 222 223 222 222 220 219 217 215 213 212 210 210 210 210 211 208 202 196 173 167 177 180 188 197 198 199 206 210 215 223 228 232 237 239 241 236 228 221
12 10 9 11 12 14 14 13 12 12 11 9 4 358 350 342 335 323 311 305 298 291 285 278 271 265 259 253 249 246 242 239 237 234 233 231 230 230 229 228 226 225 225 226 226 224 223 222 222 222 221 220 219 217 215 213 211 210 210 210 209 210 210 203 195 180 169 175 182 185 193 198 196 203 212 216 222 226 228 232 233 232 231 228 222
8 8 9 10 11 11 11 10 8 6 6 5 5 3 358 352 344 330 317 309 301 294 290 283 275 268 262 258 253 249 245 242 240 238 237 234 233 232 232 231 229 227 226 226 225 224 223 223 223 223 221 219 219 218 215 213 212 210 209 209 208 209 210 205 197 185 173 175 185 187 192 197 198 204 212 215 221 224 224 226 226 226 229 232 228
3 4 5 7 7 7 7 7 5 2 359 357 358 360 360 357 351 340 325 314 306 299 291 284 276 269 264 261 257 254 251 247 244 243 241 238 235 234 234 233 231 229 229 227 226 224 224 224 225 223 220 219 219 218 216 214 213 211 209 209 207 207 209 206 200 192 179 175 179 182 186 192 196 204 209 209 212 217 220 221 221 223 228 234 233
1 2 3 3 2 1 1 2 2 360 357 354 352 351 353 355 355 351 340 326 314 303 293 284 276 271 268 265 261 257 254 251 249 247 244 241 238 235 235 235 234 232 231 230 228 226 225 226 226 223 220 220 220 218 217 215 213 211 209 208 206 205 205 204 202 197 186 177 176 176 179 184 186 198 207 206 200 201 207 212 219 225 228 226 226
355 356 358 358 357 357 356 357 358 357 355 353 351 349 347 348 350 351 348 341 328 309 296 289 281 274 269 268 265 261 257 253 251 249 246 243 240 238 236 237 236 234 233 233 232 229 227 227 226 224 222 223 222 220 217 215 214 213 211 208 205 203 202 202 201 197 187 175 174 177 180 186 186 191 202 204 199 196 197 198 207 215 217 215 212
351 350 351 352 352 352 351 352 354 354 352 351 350 349 348 347 346 346 347 345 340 327 309 296 288 280 272 267 265 263 260 255 253 249 246 243 241 239 238 238 237 236 235 235 234 232 230 228 227 226 225 226 225 222 219 217 214 212 211 209 206 203 201 199 198 195 188 178 178 179 179 183 184 181 184 191 199 206 203 200 200 199 203 209 206
347 347 346 346 345 343 343 345 347 349 350 349 347 346 347 346 345 345 345 344 341 338 329 315 301 288 279 270 264 261 259 256 254 250 246 244 242 240 240 239 238 237 236 236 235 233 231 230 230 229 227 227 227 224 222 220 217 214 212 210 207 204 202 199 197 194 189 183 180 179 180 184 184 179 181 190 198 201 199 201 205 201 202 209 205
340 340 341 340 337 336 336 336 339 343 345 344 342 342 343 343 342 342 342 341 339 338 335 330 320 302 287 277 270 265 259 255 254 252 249 246 244 242 242 241 239 237 236 236 235 234 233 231 232 231 230 228 226 224 222 221 220 219 217 214 210 206 202 199 198 197 194 191 188 183 181 187 187 183 187 193 193 188 187 193 201 203 206 209 200
334 333 333 332 330 331 331 332 334 336 339 339 337 336 336 337 338 337 337 337 337 335 333 330 326 316 300 285 277 273 268 262 256 254 251 248 244 242 241 241 239 237 236 235 235 235 234 232 233 232 229 228 226 223 222 221 221 220 219 217 215 213 208 203 200 199 198 198 197 193 186 184 185 185 184 184 184 186 187 192 196 194 197 205 188
328 326 327 327 325 325 327 329 329 331 335 336 332 330 330 330 332 332 331 332 332 331 330 327 323 318 310 297 285 278 276 273 264 256 254 250 246 243 241 240 239 237 237 235 234 235 233 232 232 231 229 226 224 222 221 221 220 220 218 217 217 217 215 213 209 205 203 201 200 198 195 189 185 185 184 182 182 184 186 189 193 191 192 202 189
320 320 322 323 323 320 322 324 325 326 330 331 327 323 323 324 326 326 325 326 326 325 326 326 322 317 312 304 297 289 283 282 273 263 258 254 249 244 241 240 239 238 238 236 234 233 232 230 229 229 228 225 222 222 220 219 219 219 219 218 218 217 217 217 215 212 209 207 203 202 201 196 190 190 191 188 183 179 182 187 189 189 192 200 196
310 311 315 318 317 315 317 319 320 321 325 328 324 313 314 318 319 320 319 320 321 319 320 323 321 317 311 306 303 297 290 288 282 272 264 258 253 246 241 240 239 238 238 237 235 233 232 230 227 225 224 221 219 219 218 216 215 215 216 217 219 218 216 216 216 215 214 212 208 207 206 202 197 194 194 192 188 184 184 184 182 185 189 192 197
304 303 306 309 310 311 312 313 315 317 320 325 322 309 307 311 311 314 314 311 310 312 313 316 315 314 311 306 301 297 295 293 288 279 270 263 257 249 243 240 239 239 239 238 237 235 233 232 229 226 222 219 217 216 215 213 211 210 212 214 217 218 217 217 216 216 216 215 214 213 211 207 202 198 195 193 191 189 187 183 180 181 183 186 208
299 298 298 299 300 303 306 307 310 312 315 319 317 308 306 307 306 309 310 305 302 302 304 307 307 306 307 304 298 295 295 296 292 283 276 268 258 250 243 240 239 238 239 239 238 237 234 233 231 227 223 220 217 215 214 213 209 207 208 210 213 215 216 218 217 216 217 217 216 216 214 209 204 200 196 192 189 185 179 179 181 178 178 189 216
294 293 291 291 291 294 299 301 304 307 310 312 311 306 303 304 304 306 305 302 298 295 298 303 304 301 301 300 296 291 292 294 291 285 278 269 258 251 245 241 239 238 238 238 237 236 236 233 230 228 225 221 218 215 214 213 209 206 206 207 207 209 213 215 215 215 216 216 215 214 213 209 203 198 195 191 188 183 177 177 181 180 182 196 213
290 290 289 288 285 288 292 295 297 301 304 306 305 302 299 299 301 303 301 297 294 291 292 295 298 298 296 295 294 289 288 290 288 284 279 269 259 253 247 242 240 239 238 238 237 235 236 235 231 228 225 222 219 216 213 211 208 206 205 203 202 205 207 207 206 208 211 211 210 210 209 205 200 195 191 185 184 190 192 187 183 185 195 202 201
286 288 287 286 285 287 290 291 293 296 298 299 298 294 293 295 298 299 298 295 293 292 288 285 288 292 292 292 292 289 287 287 285 282 278 271 259 253 249 245 243 239 234 235 236 234 235 234 231 228 225 223 220 216 212 210 209 207 204 200 199 203 203 199 197 195 194 196 199 200 199 194 189 187 186 183 188 202 205 199 190 192 200 201 191
287 287 286 285 285 287 289 290 291 293 293 294 291 287 288 292 295 297 297 296 293 291 288 284 283 284 286 288 288 285 284 286 284 279 275 270 260 251 247 246 246 241 234 232 232 231 230 229 227 225 223 222 220 215 210 209 209 208 205 201 202 203 199 194 193 191 188 189 191 190 187 184 182 182 183 183 188 195 199 198 200 203 206 202 189
294 290 287 286 286 287 289 289 290 291 291 290 286 284 286 289 289 292 294 294 292 290 288 286 282 279 279 281 282 282 281 282 283 279 274 269 260 249 244 246 247 245 240 234 230 227 225 222 221 220 218 218 218 213 209 208 209 209 208 207 207 204 196 191 192 191 188 187 185 182 182 182 181 182 184 184 185 188 192 200 209 216 218 213 198
299 293 288 288 287 288 288 288 289 290 290 288 285 284 286 286 285 286 288 287 287 287 286 284 280 276 275 275 277 280 281 281 282 279 274 268 260 249 243 245 247 247 244 237 229 225 222 219 218 217 213 213 213 211 208 207 207 208 209 209 207 201 194 191 189 186 185 182 178 178 180 179 177 181 185 186 189 196 203 211 220 224 223 219 211
302 296 292 291 290 289 288 288 288 289 288 286 283 282 283 282 281 282 283 281 279 280 280 278 275 273 272 271 270 274 279 281 280 278 275 270 262 252 246 245 246 245 245 240 231 225 222 219 218 218 215 211 209 208 207 207 207 207 206 204 201 196 192 191 187 184 182 179 175 175 176 175 176 180 185 188 194 202 210 218 225 225 219 216 216
303 298 295 293 291 291 290 289 288 287 286 285 282 279 279 278 277 278 277 275 274 272 272 272 271 268 268 268 267 268 273 277 278 277 275 270 264 255 248 247 246 244 244 243 236 229 223 220 218 218 215 210 206 206 208 208 208 206 200 196 194 191 191 190 186 183 181 177 175 175 175 177 181 184 189 193 197 205 212 219 222 219 215 214 214
303 298 296 293 292 292 292 290 288 285 284 283 280 278 278 276 274 273 271 269 267 265 265 265 265 263 263 264 265 263 263 268 273 275 274 270 264 255 248 247 247 245 243 242 239 233 228 223 221 218 212 206 204 206 208 209 209 205 196 191 190 188 189 189 185 183 182 180 177 176 176 180 185 188 191 194 198 204 209 209 209 208 210 212 213
300 298 295 293 293 294 292 290 289 286 283 281 276 274 274 271 270 269 267 265 264 263 264 264 263 263 261 261 262 261 256 256 264 269 270 266 261 254 248 246 245 244 244 242 238 233 229 225 221 215 207 202 202 204 206 208 209 204 194 188 188 189 189 188 184 182 183 182 180 179 180 183 185 186 189 192 196 200 200 198 198 204 209 212 216
298 296 294 294 294 293 290 289 288 286 283 279 275 271 269 267 267 267 265 264 265 265 265 265 264 263 261 259 260 260 256 249 252 260 261 256 254 252 248 245 243 243 244 242 234 226 221 219 215 209 204 200 200 202 203 205 206 201 190 187 190 193 193 190 188 187 186 185 183 181 180 181 181 181 184 187 189 193 196 196 196 199 206 210 215
297 295 294 294 294 292 289 287 286 284 282 278 273 270 268 266 265 263 261 261 263 265 265 265 265 263 263 263 261 261 259 249 243 250 253 249 247 247 244 241 239 238 240 238 228 216 209 206 204 203 201 198 197 198 199 202 204 198 189 188 192 193 191 189 189 189 188 185 180 174 172 174 176 177 179 182 184 187 192 196 194 192 194 197 204
296 294 294 293 292 291 289 286 285 284 282 279 274 270 266 264 263 264 261 257 256 259 260 260 260 260 261 263 262 261 260 254 249 253 255 252 248 245 242 239 235 232 234 231 218 204 196 192 193 196 195 194 194 192 192 198 201 196 188 187 187 183 181 182 184 185 182 177 171 170 169 170 172 175 176 178 183 187 190 193 193 189 187 192 204
295 294 293 293 291 292 290 287 286 285 283 281 279 275 271 266 263 263 265 264 261 259 259 259 259 260 261 262 261 260 260 260 261 261 259 254 248 242 239 238 233 231 233 222 204 193 188 185 188 191 191 193 193 189 187 190 192 188 184 182 179 175 175 179 181 179 176 173 172 173 172 170 171 174 175 177 182 185 188 190 190 187 187 192 202
295 294 294 292 291 292 290 287 287 286 283 282 282 281 280 276 268 265 268 270 268 264 261 260 260 259 260 261 261 262 262 263 264 262 257 255 250 241 237 236 231 230 230 214 194 187 187 185 185 188 189 192 193 190 186 184 179 175 174 175 174 172 172 174 176 176 174 174 175 176 175 174 173 174 176 178 178 179 182 185 186 187 191 195 200
293 294 294 292 291 291 289 287 287 286 284 284 282 281 284 284 279 275 272 271 272 275 276 274 271 269 268 267 266 264 261 260 261 260 256 254 252 247 242 237 232 231 226 208 191 186 188 186 186 188 187 190 193 191 185 177 171 168 167 165 168 171 171 172 176 178 176 175 176 176 177 177 176 177 178 177 176 176 179 181 183 185 190 195 199
293 294 294 293 292 290 289 288 287 285 285 285 283 282 282 282 284 285 282 279 280 283 282 281 280 281 280 279 275 271 265 261 258 256 254 251 249 248 245 239 233 230 222 207 195 191 189 186 187 186 185 189 191 188 182 175 171 169 167 166 168 170 172 175 177 177 176 176 177 176 175 176 176 176 176 176 176 177 178 179 180 181 184 190 196
294 293 293 292 291 290 289 287 286 285 284 283 282 281 280 279 281 285 287 287 286 283 279 277 277 278 280 279 275 272 268 265 260 257 253 248 244 242 242 240 235 230 222 211 201 192 188 187 188 186 187 189 186 180 177 176 174 172 170 169 168 166 169 172 171 169 171 174 175 174 173 174 174 173 172 173 175 176 175 175 175 177 180 186 191
294 293 292 290 289 288 287 286 284 283 282 281 280 279 279 279 280 280 282 284 285 284 284 282 278 277 279 277 271 266 263 261 259 257 253 247 239 234 234 234 229 225 221 213 199 187 182 182 183 186 188 187 181 177 176 175 174 172 170 167 163 161 163 165 164 164 168 169 169 169 170 171 172 172 172 173 175 177 177 178 179 182 183 185 189
294 293 292 289 288 286 285 284 282 280 280 279 279 278 278 278 278 278 278 280 280 280 280 280 281 283 285 281 272 264 260 257 253 251 252 248 235 225 225 226 220 219 220 211 200 191 185 185 186 187 187 185 181 179 177 175 174 174 171 167 165 164 165 164 163 163 165 166 166 168 169 170 173 174 174 175 178 180 181 182 183 185 185 186 192
294 291 289 287 286 284 283 282 280 278 278 278 278 278 278 277 277 277 277 278 281 281 281 284 287 289 289 286 277 266 262 261 255 250 252 248 231 217 218 224 221 219 219 211 201 194 190 190 190 187 184 183 181 179 176 175 176 175 173 172 171 170 170 170 168 166 166 166 167 169 172 174 177 178 177 177 178 179 182 185 185 186 190 193 198
292 288 285 285 285 283 283 283 282 281 280 279 278 278 279 279 279 279 278 279 282 282 281 282 282 279 279 283 283 275 267 266 264 259 255 245 225 211 214 223 222 220 218 207 196 190 187 187 185 182 181 182 180 176 172 170 171 171 170 171 172 171 169 168 166 165 166 167 168 171 174 175 177 178 179 178 177 178 181 183 184 186 192 198 204
292 289 287 287 288 287 284 283 282 282 281 280 279 278 278 278 279 278 277 279 279 278 276 276 277 275 271 274 279 283 280 273 271 270 259 236 213 206 213 220 218 217 218 207 192 186 184 181 177 177 178 177 174 171 168 166 167 168 167 166 166 166 164 164 164 164 166 167 168 171 174 175 176 179 181 180 178 178 180 183 186 188 193 200 207
295 294 291 290 290 288 285 281 280 279 278 278 278 277 277 278 278 278 279 279 279 279 279 277 279 281 278 273 273 279 282 277 273 272 261 220 194 196 207 213 212 214 217 207 188 179 176 173 171 170 170 170 170 169 167 165 165 165 164 164 165 165 166 167 168 168 168 169 169 171 174 176 178 179 180 179 180 182 183 186 190 192 196 206 212
299 296 292 290 287 286 284 280 276 274 273 272 274 274 273 274 274 274 276 277 277 279 279 276 275 277 279 278 276 275 274 271 268 267 262 227 197 197 202 211 217 214 205 190 178 171 166 164 162 160 160 164 166 167 167 166 164 161 162 164 165 166 167 169 170 171 171 172 173 174 176 177 178 177 177 178 181 183 185 188 191 193 199 210 217
301 297 295 293 290 285 282 279 275 273 269 267 267 267 268 269 270 271 272 274 274 274 275 275 277 279 282 286 287 284 279 270 261 261 262 242 208 197 194 195 198 190 176 167 163 159 154 153 155 157 160 164 166 165 167 168 164 161 163 164 163 164 167 169 171 173 174 176 178 178 178 178 178 178 178 178 180 182 185 188 190 194 202 211 218
304 302 301 300 297 293 288 282 278 275 271 267 265 264 264 265 266 267 269 271 270 270 272 274 278 282 285 288 290 289 285 277 264 256 248 213 175 166 161 157 154 154 154 154 155 154 153 154 158 161 165 170 173 175 176 174 168 164 163 164 163 164 166 168 171 174 177 178 179 179 177 177 178 177 177 178 180 182 186 190 194 200 208 214 224
309 307 305 304 302 300 298 294 287 281 275 271 268 266 266 266 265 265 267 269 270 272 274 275 278 282 286 289 290 289 288 284 268 215 170 149 138 135 138 141 144 147 149 150 151 153 155 157 160 162 165 169 174 177 178 177 172 167 166 165 164 165 167 170 173 177 178 177 176 176 176 177 177 177 178 180 182 183 187 193 198 203 208 217 227
313 312 310 309 309 310 312 312 308 302 295 286 279 273 271 268 265 264 265 266 268 271 275 279 283 288 293 299 307 313 323 22 101 121 129 129 126 127 131 137 143 149 151 152 154 157 160 163 165 164 163 165 166 166 166 167 167 168 170 169 167 167 169 172 174 176 177 176 176 176 178 179 179 180 181 182 184 187 190 193 199 204 211 222 232
317 316 315 315 316 318 321 323 324 322 319 315 311 306 298 290 283 279 277 279 280 283 289 299 311 323 339 1 22 43 69 87 94 101 108 116 121 127 133 139 143 146 150 154 159 162 164 166 166 164 161 160 160 160 160 161 162 164 167 168 167 166 168 171 172 174 175 177 178 179 180 181 183 184 184 185 187 190 191 195 204 212 218 229 241
321 320 320 322 323 324 327 331 334 335 334 333 334 337 338 336 334 334 336 341 343 344 349 359 6 11 22 34 48 61 75 86 92 95 102 110 116 121 128 136 141 145 149 154 157 159 158 159 160 159 154 153 153 153 155 157 158 159 160 161 162 163 165 166 168 170 172 176 179 181 182 184 184 184 186 187 188 191 198 207 219 231 239 246 252
327 325 326 328 330 331 335 339 342 345 344 343 343 345 348 353 358 360 360 1 4 7 9 12 15 20 27 38 54 69 80 86 89 92 98 104 109 114 122 130 136 141 144 145 146 149 151 151 151 149 146 145 146 147 148 150 151 152 152 153 156 159 161 161 164 166 168 172 176 179 182 186 186 185 187 190 190 196 208 219 228 240 246 248 252
334 332 332 333 336 338 340 342 345 347 349 351 351 350 351 354 0 5 5 5 7 10 12 15 19 22 27 37 52 67 79 87 90 92 96 102 107 112 120 127 132 136 137 136 136 137 139 141 141 140 139 140 140 140 142 145 146 147 150 152 154 157 160 161 164 167 169 172 176 179 182 186 187 187 191 194 196 206 225 240 247 250 246 244 249
341 340 339 338 339 340 342 344 347 348 352 356 358 357 356 355 357 0 4 7 10 14 17 20 24 29 36 45 55 66 76 85 91 93 98 105 112 116 120 125 128 128 128 128 129 130 131 132 134 134 134 135 136 137 140 142 145 148 151 153 154 157 160 162 165 169 171 174 177 180 183 186 188 190 195 200 208 225 244 254 257 254 246 243 251
349 347 345 345 346 345 347 350 352 352 353 356 359 1 2 2 360 360 3 8 12 16 20 25 32 39 45 52 61 71 77 82 88 94 102 111 117 119 119 121 122 122 123 124 125 126 128 129 130 130 131 132 133 135 138 141 144 147 149 151 153 157 160 163 166 169 172 176 180 183 186 189 191 194 199 207 222 241 253 259 258 252 247 249 260